Tracking 32579 objects as of 16-Dec-2025
HD Live streaming from Space Station
objects crossing your sky now

PORCUPINE 1

Track PORCUPINE 1 now!
10-day predictions
PORCUPINE 1 is classified as:


NORAD ID: 1272
Int'l Code: 1965-016H
Perigee: 903.8 km
Apogee: 936.2 km
Inclination: 70.1 °
Period: 103.3 minutes
Semi major axis: 7291 km
RCS: 0.248 m2 (medium)
Launch date: March 9, 1965
Source: United States (US)
Launch site: AIR FORCE WESTERN TEST RANGE (AFWTR)
Your satellite tracking list
Your tracking list is empty




NASA's NSSDC Master Catalog

Two Line Element Set (TLE):
1 01272U 65016H   25349.95000050  .00000010  00000-0  46611-4 0  9995
2 01272  70.0802 278.9080 0022250 355.2934   4.7959 13.94511346 90838
Source of the keplerian elements: AFSPC